Station Historical Data
Daily Summary for September 24, 2017 Units:  English    Metric   Both
« Previous Day
Next Day »
Daily Weekly Monthly Yearly Custom
  High: Low: Average:
Temperature: 89.5 °F 62.4 °F 75 °F
Dew Point: 71.7 °F 58.8 °F 64.7 °F
Humidity: 89% 52% 72%
Wind Speed: 5.0mph 0.0mph 0.7mph
Wind Gust: 9.0mph - -
Wind- - WSW
Pressure: 30.16 in 30.06 in -
Precipitation: 0.00 in    
Historical Graphs
 
 
Tabular Data for September 24, 2017
Time Temperature Dew Point Pressure Wind Wind Speed Wind Gust Humidity Rainfall Rate (Hourly)
00:04 67.0 °F 61.3 °F 30.09 in Calm     82% 0.00 in
00:09 66.8 °F 61.1 °F 30.09 in Calm     82% 0.00 in
00:14 66.6 °F 60.9 °F 30.09 in Calm     82% 0.00 in
00:19 66.5 °F 61.2 °F 30.09 in Calm     83% 0.00 in
00:24 66.3 °F 61.0 °F 30.09 in Calm     83% 0.00 in
00:29 66.1 °F 60.8 °F 30.09 in Calm     83% 0.00 in
00:34 66.1 °F 61.1 °F 30.10 in Calm     84% 0.00 in
00:39 66.0 °F 60.7 °F 30.10 in Calm     83% 0.00 in
00:44 65.9 °F 60.9 °F 30.10 in Calm     84% 0.00 in
00:49 65.9 °F 60.9 °F 30.10 in Calm     84% 0.00 in
00:54 66.0 °F 61.0 °F 30.10 in Calm     84% 0.00 in
00:59 65.9 °F 60.9 °F 30.10 in Calm     84% 0.00 in
01:05 65.8 °F 60.8 °F 30.10 in Calm     84% 0.00 in
01:10 65.8 °F 60.8 °F 30.10 in Calm     84% 0.00 in
01:15 65.7 °F 61.1 °F 30.10 in Calm     85% 0.00 in
01:20 65.7 °F 60.7 °F 30.10 in Calm     84% 0.00 in
01:25 65.7 °F 60.7 °F 30.10 in Calm     84% 0.00 in
01:30 65.5 °F 60.5 °F 30.10 in Calm     84% 0.00 in
01:35 65.4 °F 60.8 °F 30.10 in Calm     85% 0.00 in
01:40 65.3 °F 60.7 °F 30.10 in Calm     85% 0.00 in
01:45 65.2 °F 60.6 °F 30.10 in Calm     85% 0.00 in
01:50 65.0 °F 60.4 °F 30.10 in Calm     85% 0.00 in
01:55 65.0 °F 60.7 °F 30.10 in Calm     86% 0.00 in
02:00 64.9 °F 60.6 °F 30.10 in Calm     86% 0.00 in
02:05 64.9 °F 60.6 °F 30.10 in Calm     86% 0.00 in
02:10 64.9 °F 60.6 °F 30.10 in Calm     86% 0.00 in
02:15 64.9 °F 60.6 °F 30.10 in Calm     86% 0.00 in
02:20 64.7 °F 60.4 °F 30.10 in Calm     86% 0.00 in
02:25 64.7 °F 60.4 °F 30.10 in Calm     86% 0.00 in
02:30 64.7 °F 60.4 °F 30.11 in Calm     86% 0.00 in
02:35 64.8 °F 60.5 °F 30.11 in Calm     86% 0.00 in
02:40 64.7 °F 60.4 °F 30.11 in Calm     86% 0.00 in
02:45 64.5 °F 60.2 °F 30.11 in Calm     86% 0.00 in
02:50 64.3 °F 60.0 °F 30.11 in Calm     86% 0.00 in
02:55 64.1 °F 60.2 °F 30.11 in Calm     87% 0.00 in
03:00 64.0 °F 60.1 °F 30.10 in Calm     87% 0.00 in
03:05 64.0 °F 60.1 °F 30.11 in Calm     87% 0.00 in
03:10 63.8 °F 59.9 °F 30.11 in Calm     87% 0.00 in
03:15 63.8 °F 59.9 °F 30.11 in Calm     87% 0.00 in
03:20 63.8 °F 59.9 °F 30.10 in Calm     87% 0.00 in
03:25 63.7 °F 59.8 °F 30.11 in Calm     87% 0.00 in
03:30 63.6 °F 60.0 °F 30.11 in Calm     88% 0.00 in
03:35 63.6 °F 60.0 °F 30.11 in Calm     88% 0.00 in
03:40 63.5 °F 59.9 °F 30.11 in Calm     88% 0.00 in
03:45 63.6 °F 60.0 °F 30.11 in Calm     88% 0.00 in
03:50 63.5 °F 59.9 °F 30.11 in Calm     88% 0.00 in
03:55 63.3 °F 59.7 °F 30.11 in Calm     88% 0.00 in
04:00 63.3 °F 59.7 °F 30.11 in Calm     88% 0.00 in
04:05 63.2 °F 59.6 °F 30.11 in Calm     88% 0.00 in
04:10 63.2 °F 59.6 °F 30.12 in Calm     88% 0.00 in
04:15 63.2 °F 59.6 °F 30.12 in Calm     88% 0.00 in
04:20 63.2 °F 59.9 °F 30.12 in Calm     89% 0.00 in
04:25 63.2 °F 59.9 °F 30.12 in Calm     89% 0.00 in
04:30 63.1 °F 59.8 °F 30.12 in Calm     89% 0.00 in
04:35 63.1 °F 59.8 °F 30.12 in Calm     89% 0.00 in
04:45 63.3 °F 59.7 °F 30.12 in Calm     88% 0.00 in
04:50 63.2 °F 59.6 °F 30.12 in Calm     88% 0.00 in
04:55 63.3 °F 59.7 °F 30.12 in Calm     88% 0.00 in
05:00 63.3 °F 59.7 °F 30.13 in Calm     88% 0.00 in
05:05 63.2 °F 59.6 °F 30.13 in Calm     88% 0.00 in
05:10 63.2 °F 59.6 °F 30.13 in Calm     88% 0.00 in
05:15 63.2 °F 59.6 °F 30.12 in Calm     88% 0.00 in
05:20 63.1 °F 59.5 °F 30.13 in Calm     88% 0.00 in
05:25 63.0 °F 59.4 °F 30.13 in Calm     88% 0.00 in
05:30 62.9 °F 59.3 °F 30.13 in Calm     88% 0.00 in
05:34 62.8 °F 59.2 °F 30.13 in Calm     88% 0.00 in
05:40 62.7 °F 59.1 °F 30.13 in Calm     88% 0.00 in
05:45 62.5 °F 58.9 °F 30.13 in Calm     88% 0.00 in
05:50 62.5 °F 58.9 °F 30.13 in Calm     88% 0.00 in
05:54 62.4 °F 58.8 °F 30.13 in Calm     88% 0.00 in
06:00 62.5 °F 58.9 °F 30.13 in Calm     88% 0.00 in
06:05 62.5 °F 58.9 °F 30.13 in Calm     88% 0.00 in
06:10 62.5 °F 58.9 °F 30.13 in Calm     88% 0.00 in
06:15 62.6 °F 59.0 °F 30.13 in Calm     88% 0.00 in
06:20 62.6 °F 59.0 °F 30.14 in Calm     88% 0.00 in
06:25 62.6 °F 59.0 °F 30.14 in Calm     88% 0.00 in
06:30 62.6 °F 59.0 °F 30.14 in Calm     88% 0.00 in
06:35 62.6 °F 59.0 °F 30.14 in Calm     88% 0.00 in
06:39 62.6 °F 59.0 °F 30.14 in Calm     88% 0.00 in
06:45 62.6 °F 59.0 °F 30.14 in Calm     88% 0.00 in
06:50 62.5 °F 58.9 °F 30.14 in Calm     88% 0.00 in
06:55 62.6 °F 59.0 °F 30.14 in Calm     88% 0.00 in
07:00 62.6 °F 59.0 °F 30.14 in Calm     88% 0.00 in
07:10 62.5 °F 58.9 °F 30.14 in Calm     88% 0.00 in
07:14 62.4 °F 58.8 °F 30.15 in Calm     88% 0.00 in
07:20 62.4 °F 58.8 °F 30.15 in Calm     88% 0.00 in
07:24 62.4 °F 58.8 °F 30.15 in Calm     88% 0.00 in
07:30 62.5 °F 58.9 °F 30.15 in Calm     88% 0.00 in
07:34 62.5 °F 58.9 °F 30.15 in Calm     88% 0.00 in
07:39 62.7 °F 59.1 °F 30.15 in Calm     88% 0.00 in
07:44 63.0 °F 59.4 °F 30.15 in Calm     88% 0.00 in
07:55 63.5 °F 59.6 °F 30.15 in Calm     87% 0.00 in
08:00 63.8 °F 59.9 °F 30.15 in Calm     87% 0.00 in
08:04 64.2 °F 59.9 °F 30.14 in Calm     86% 0.00 in
08:09 64.7 °F 60.4 °F 30.15 in Calm     86% 0.00 in
08:15 65.2 °F 60.2 °F 30.15 in Calm     84% 0.00 in
08:20 65.7 °F 60.4 °F 30.14 in Calm     83% 0.00 in
08:25 66.3 °F 60.6 °F 30.15 in Calm     82% 0.00 in
08:30 67.1 °F 61.1 °F 30.15 in Calm     81% 0.00 in
08:35 68.0 °F 61.6 °F 30.15 in Calm     80% 0.00 in
08:39 68.7 °F 61.6 °F 30.15 in Calm     78% 0.00 in
08:44 69.2 °F 61.3 °F 30.15 in Calm     76% 0.00 in
08:49 69.6 °F 61.3 °F 30.15 in Calm     75% 0.00 in
08:55 70.0 °F 61.3 °F 30.15 in Calm     74% 0.00 in
08:59 70.5 °F 61.8 °F 30.15 in Calm     74% 0.00 in
09:04 71.1 °F 62.0 °F 30.15 in Calm     73% 0.00 in
09:10 71.8 °F 62.7 °F 30.15 in Calm     73% 0.00 in
09:15 72.2 °F 62.7 °F 30.15 in SW 2.0 mph 3.0 mph 72% 0.00 in
09:20 72.7 °F 62.3 °F 30.16 in SW 1.0 mph 4.0 mph 70% 0.00 in
09:25 72.8 °F 62.0 °F 30.16 in SW 2.0 mph 4.0 mph 69% 0.00 in
09:30 73.2 °F 62.8 °F 30.16 in SW 1.0 mph 4.0 mph 70% 0.00 in
09:35 73.9 °F 62.7 °F 30.15 in SW 1.0 mph 4.0 mph 68% 0.00 in
09:39 74.4 °F 62.3 °F 30.15 in SSW 1.0 mph 4.0 mph 66% 0.00 in
09:44 74.8 °F 63.1 °F 30.15 in Calm   3.0 mph 67% 0.00 in
09:49 75.5 °F 63.3 °F 30.15 in WSW 4.0 mph 4.0 mph 66% 0.00 in
09:55 75.8 °F 63.2 °F 30.15 in WSW 1.0 mph 5.0 mph 65% 0.00 in
10:00 76.3 °F 63.7 °F 30.15 in West 1.0 mph 4.0 mph 65% 0.00 in
10:04 76.6 °F 64.0 °F 30.16 in West 2.0 mph 4.0 mph 65% 0.00 in
10:09 76.9 °F 64.2 °F 30.16 in WSW 2.0 mph 4.0 mph 65% 0.00 in
10:15 77.3 °F 63.7 °F 30.16 in WSW 2.0 mph 6.0 mph 63% 0.00 in
10:20 77.4 °F 63.8 °F 30.16 in SW 2.0 mph 6.0 mph 63% 0.00 in
10:25 78.0 °F 63.9 °F 30.16 in WSW 1.0 mph 3.0 mph 62% 0.00 in
10:30 78.8 °F 65.1 °F 30.15 in WSW 1.0 mph 4.0 mph 63% 0.00 in
10:35 79.5 °F 65.3 °F 30.15 in WSW 1.0 mph 4.0 mph 62% 0.00 in
10:39 80.0 °F 65.3 °F 30.15 in WSW 1.0 mph 5.0 mph 61% 0.00 in
10:45 80.0 °F 64.9 °F 30.15 in WSW 2.0 mph 5.0 mph 60% 0.00 in
10:49 80.0 °F 64.9 °F 30.15 in WSW 4.0 mph 4.0 mph 60% 0.00 in
10:55 80.1 °F 65.4 °F 30.15 in Calm   4.0 mph 61% 0.00 in
10:59 80.6 °F 65.9 °F 30.15 in West 3.0 mph 4.0 mph 61% 0.00 in
11:04 80.6 °F 65.4 °F 30.15 in WSW 2.0 mph 5.0 mph 60% 0.00 in
11:09 81.1 °F 64.9 °F 30.15 in WSW 2.0 mph 5.0 mph 58% 0.00 in
11:15 81.4 °F 66.7 °F 30.15 in WSW 2.0 mph 5.0 mph 61% 0.00 in
11:20 81.4 °F 65.2 °F 30.15 in SW 2.0 mph 5.0 mph 58% 0.00 in
11:25 81.6 °F 66.4 °F 30.15 in Calm   4.0 mph 60% 0.00 in
11:30 81.7 °F 66.0 °F 30.15 in WSW 4.0 mph 6.0 mph 59% 0.00 in
11:34 81.8 °F 68.4 °F 30.15 in WSW 2.0 mph 6.0 mph 64% 0.00 in
11:39 82.0 °F 67.2 °F 30.15 in SW 3.0 mph 6.0 mph 61% 0.00 in
11:44 82.3 °F 66.5 °F 30.15 in SW 2.0 mph 5.0 mph 59% 0.00 in
11:50 82.1 °F 66.4 °F 30.15 in WSW 2.0 mph 6.0 mph 59% 0.00 in
11:54 82.5 °F 66.7 °F 30.15 in Calm   6.0 mph 59% 0.00 in
11:59 82.9 °F 67.1 °F 30.14 in West 2.0 mph 5.0 mph 59% 0.00 in
12:04 82.5 °F 66.2 °F 30.14 in Calm   4.0 mph 58% 0.00 in
12:09 83.4 °F 67.6 °F 30.14 in WSW 2.0 mph 4.0 mph 59% 0.00 in
12:14 83.6 °F 67.3 °F 30.14 in West 1.0 mph 5.0 mph 58% 0.00 in
12:19 83.7 °F 67.8 °F 30.14 in West 1.0 mph 3.0 mph 59% 0.00 in
12:25 83.7 °F 66.8 °F 30.14 in Calm   4.0 mph 57% 0.00 in
12:29 83.5 °F 67.7 °F 30.14 in WSW 2.0 mph 5.0 mph 59% 0.00 in
12:35 83.9 °F 68.5 °F 30.14 in WSW 2.0 mph 3.0 mph 60% 0.00 in
12:39 84.0 °F 67.1 °F 30.14 in West 1.0 mph 4.0 mph 57% 0.00 in
12:44 84.2 °F 66.8 °F 30.13 in WNW 2.0 mph 4.0 mph 56% 0.00 in
12:50 84.6 °F 67.7 °F 30.13 in West 2.0 mph 4.0 mph 57% 0.00 in
12:54 85.3 °F 68.8 °F 30.13 in West 2.0 mph 5.0 mph 58% 0.00 in
12:59 85.3 °F 67.8 °F 30.13 in Calm   4.0 mph 56% 0.00 in
13:04 85.4 °F 69.4 °F 30.13 in WSW 1.0 mph 5.0 mph 59% 0.00 in
13:09 85.9 °F 68.9 °F 30.12 in WSW 1.0 mph 5.0 mph 57% 0.00 in
13:14 85.9 °F 67.9 °F 30.12 in SW 1.0 mph 4.0 mph 55% 0.00 in
13:20 86.4 °F 67.8 °F 30.12 in WSW 1.0 mph 5.0 mph 54% 0.00 in
13:24 87.0 °F 68.3 °F 30.12 in Calm   4.0 mph 54% 0.00 in
13:29 86.4 °F 69.4 °F 30.12 in Calm   4.0 mph 57% 0.00 in
13:35 87.2 °F 68.5 °F 30.12 in WSW 3.0 mph 5.0 mph 54% 0.00 in
13:39 86.9 °F 68.3 °F 30.11 in WSW 2.0 mph 5.0 mph 54% 0.00 in
13:44 86.5 °F 67.9 °F 30.11 in West 2.0 mph 4.0 mph 54% 0.00 in
13:50 86.7 °F 67.5 °F 30.11 in WNW 2.0 mph 6.0 mph 53% 0.00 in
13:54 87.3 °F 69.2 °F 30.11 in WNW 2.0 mph 5.0 mph 55% 0.00 in
13:59 86.8 °F 67.6 °F 30.11 in WSW 2.0 mph 5.0 mph 53% 0.00 in
14:04 86.9 °F 67.2 °F 30.10 in Calm   3.0 mph 52% 0.00 in
14:09 86.6 °F 67.4 °F 30.10 in WSW 1.0 mph 4.0 mph 53% 0.00 in
14:14 87.5 °F 68.3 °F 30.10 in NW 2.0 mph 6.0 mph 53% 0.00 in
14:19 87.9 °F 70.2 °F 30.10 in South 2.0 mph 4.0 mph 56% 0.00 in
14:24 88.3 °F 69.5 °F 30.10 in SW 2.0 mph 4.0 mph 54% 0.00 in
14:29 87.8 °F 68.0 °F 30.09 in WSW 2.0 mph 4.0 mph 52% 0.00 in
14:34 87.7 °F 69.0 °F 30.09 in WSW 2.0 mph 6.0 mph 54% 0.00 in
14:39 87.9 °F 70.2 °F 30.09 in WSW 3.0 mph 8.0 mph 56% 0.00 in
14:44 88.5 °F 70.3 °F 30.09 in WSW 3.0 mph 8.0 mph 55% 0.00 in
14:50 88.1 °F 68.3 °F 30.09 in Calm   5.0 mph 52% 0.00 in
14:54 88.4 °F 69.6 °F 30.09 in WNW 2.0 mph 5.0 mph 54% 0.00 in
15:00 89.0 °F 69.6 °F 30.09 in West 1.0 mph 5.0 mph 53% 0.00 in
15:04 88.1 °F 69.4 °F 30.09 in West 2.0 mph 5.0 mph 54% 0.00 in
15:09 88.4 °F 70.2 °F 30.09 in SSW 3.0 mph 6.0 mph 55% 0.00 in
15:14 88.3 °F 69.5 °F 30.09 in SW 3.0 mph 5.0 mph 54% 0.00 in
15:19 88.4 °F 71.7 °F 30.09 in WNW 4.0 mph 9.0 mph 58% 0.00 in
15:24 88.9 °F 69.6 °F 30.08 in WSW 3.0 mph 4.0 mph 53% 0.00 in
15:29 89.0 °F 69.6 °F 30.08 in WSW 1.0 mph 4.0 mph 53% 0.00 in
15:34 89.0 °F 69.6 °F 30.08 in WSW 2.0 mph 4.0 mph 53% 0.00 in
15:39 89.0 °F 69.6 °F 30.08 in WSW 2.0 mph 5.0 mph 53% 0.00 in
15:44 88.5 °F 69.2 °F 30.08 in WSW 1.0 mph 5.0 mph 53% 0.00 in
15:49 89.0 °F 69.6 °F 30.08 in SW 1.0 mph 6.0 mph 53% 0.00 in
15:54 89.3 °F 69.9 °F 30.08 in SW 2.0 mph 6.0 mph 53% 0.00 in
15:59 89.1 °F 69.7 °F 30.08 in SSW 2.0 mph 4.0 mph 53% 0.00 in
16:05 89.5 °F 71.2 °F 30.08 in WNW 2.0 mph 6.0 mph 55% 0.00 in
16:09 89.3 °F 69.9 °F 30.08 in SW 4.0 mph 6.0 mph 53% 0.00 in
16:14 89.0 °F 70.7 °F 30.07 in WNW 1.0 mph 6.0 mph 55% 0.00 in
16:19 89.0 °F 70.2 °F 30.07 in WSW 5.0 mph 5.0 mph 54% 0.00 in
16:24 89.0 °F 69.6 °F 30.07 in NW 3.0 mph 7.0 mph 53% 0.00 in
16:29 89.0 °F 70.2 °F 30.07 in WNW 3.0 mph 5.0 mph 54% 0.00 in
16:34 89.2 °F 69.3 °F 30.07 in WNW 3.0 mph 5.0 mph 52% 0.00 in
16:39 88.9 °F 69.6 °F 30.07 in West 3.0 mph 7.0 mph 53% 0.00 in
16:44 88.8 °F 70.5 °F 30.07 in West 3.0 mph 7.0 mph 55% 0.00 in
16:49 88.8 °F 70.0 °F 30.07 in WNW 3.0 mph 5.0 mph 54% 0.00 in
16:54 88.7 °F 70.5 °F 30.06 in WNW 4.0 mph 5.0 mph 55% 0.00 in
16:59 88.7 °F 70.5 °F 30.07 in West 2.0 mph 5.0 mph 55% 0.00 in
17:04 88.8 °F 70.5 °F 30.07 in West 2.0 mph 5.0 mph 55% 0.00 in
17:09 88.7 °F 69.4 °F 30.06 in WSW 2.0 mph 5.0 mph 53% 0.00 in
17:14 88.7 °F 69.9 °F 30.06 in SW 3.0 mph 5.0 mph 54% 0.00 in
17:19 88.7 °F 69.9 °F 30.06 in SW 2.0 mph 5.0 mph 54% 0.00 in
17:24 88.9 °F 70.1 °F 30.06 in SW 1.0 mph 3.0 mph 54% 0.00 in
17:30 88.9 °F 70.1 °F 30.06 in Calm   4.0 mph 54% 0.00 in
17:34 88.2 °F 70.0 °F 30.07 in Calm   6.0 mph 55% 0.00 in
17:39 87.9 °F 69.7 °F 30.07 in SW 1.0 mph 6.0 mph 55% 0.00 in
17:44 87.5 °F 69.9 °F 30.07 in Calm   4.0 mph 56% 0.00 in
17:49 87.0 °F 69.4 °F 30.07 in SSW 2.0 mph 5.0 mph 56% 0.00 in
17:54 86.6 °F 69.6 °F 30.07 in SW 1.0 mph 5.0 mph 57% 0.00 in
17:59 86.2 °F 70.2 °F 30.07 in SW 1.0 mph 4.0 mph 59% 0.00 in
18:04 85.9 °F 69.9 °F 30.07 in SW 2.0 mph 5.0 mph 59% 0.00 in
18:09 85.7 °F 69.7 °F 30.06 in SSW 2.0 mph 5.0 mph 59% 0.00 in
18:14 85.5 °F 69.0 °F 30.06 in SW 2.0 mph 4.0 mph 58% 0.00 in
18:19 85.2 °F 69.3 °F 30.06 in SW 1.0 mph 4.0 mph 59% 0.00 in
18:24 84.9 °F 68.5 °F 30.06 in Calm     58% 0.00 in
18:29 84.8 °F 68.9 °F 30.06 in Calm     59% 0.00 in
18:34 84.5 °F 69.1 °F 30.06 in Calm     60% 0.00 in
18:39 84.2 °F 69.3 °F 30.06 in Calm     61% 0.00 in
18:44 83.7 °F 68.8 °F 30.06 in Calm     61% 0.00 in
18:49 83.4 °F 68.5 °F 30.06 in Calm     61% 0.00 in
18:54 83.1 °F 68.7 °F 30.06 in Calm     62% 0.00 in
18:59 82.7 °F 68.8 °F 30.07 in Calm     63% 0.00 in
19:04 82.4 °F 68.5 °F 30.06 in Calm     63% 0.00 in
19:09 81.9 °F 68.5 °F 30.06 in Calm     64% 0.00 in
19:14 81.1 °F 68.2 °F 30.06 in Calm     65% 0.00 in
19:19 80.9 °F 68.5 °F 30.07 in Calm     66% 0.00 in
19:24 80.4 °F 68.0 °F 30.07 in Calm     66% 0.00 in
19:29 80.1 °F 68.2 °F 30.07 in Calm     67% 0.00 in
19:34 79.8 °F 67.9 °F 30.07 in Calm     67% 0.00 in
19:39 79.5 °F 68.0 °F 30.07 in Calm     68% 0.00 in
19:44 79.1 °F 68.1 °F 30.07 in Calm     69% 0.00 in
19:49 78.8 °F 68.2 °F 30.07 in Calm     70% 0.00 in
19:54 78.4 °F 67.8 °F 30.07 in Calm     70% 0.00 in
19:59 78.2 °F 68.0 °F 30.07 in Calm     71% 0.00 in
20:04 78.0 °F 67.8 °F 30.07 in Calm     71% 0.00 in
20:09 77.6 °F 67.9 °F 30.07 in Calm     72% 0.00 in
20:14 77.3 °F 67.6 °F 30.07 in Calm     72% 0.00 in
20:19 77.0 °F 67.7 °F 30.07 in Calm     73% 0.00 in
20:24 76.7 °F 67.4 °F 30.07 in Calm     73% 0.00 in
20:29 76.5 °F 67.2 °F 30.07 in Calm     73% 0.00 in
20:35 76.4 °F 67.1 °F 30.07 in Calm     73% 0.00 in
20:44 76.0 °F 66.7 °F 30.07 in Calm     73% 0.00 in
20:49 75.7 °F 66.8 °F 30.07 in Calm     74% 0.00 in
20:54 75.6 °F 66.7 °F 30.07 in Calm     74% 0.00 in
20:59 75.4 °F 66.5 °F 30.07 in Calm     74% 0.00 in
21:04 75.2 °F 66.7 °F 30.07 in Calm     75% 0.00 in
21:09 75.2 °F 66.7 °F 30.07 in Calm     75% 0.00 in
21:14 74.9 °F 66.4 °F 30.08 in Calm     75% 0.00 in
21:19 74.7 °F 66.2 °F 30.07 in Calm     75% 0.00 in
21:24 74.5 °F 66.4 °F 30.07 in Calm     76% 0.00 in
21:29 74.4 °F 66.3 °F 30.07 in Calm     76% 0.00 in
21:34 74.1 °F 66.0 °F 30.07 in Calm     76% 0.00 in
21:39 73.9 °F 66.2 °F 30.07 in Calm     77% 0.00 in
21:44 73.7 °F 66.0 °F 30.08 in Calm     77% 0.00 in
21:49 73.4 °F 66.1 °F 30.07 in Calm     78% 0.00 in
21:54 73.1 °F 65.8 °F 30.08 in Calm     78% 0.00 in
21:59 73.0 °F 66.1 °F 30.08 in Calm     79% 0.00 in
22:04 72.9 °F 66.4 °F 30.08 in Calm     80% 0.00 in
22:09 73.0 °F 66.5 °F 30.08 in Calm     80% 0.00 in
22:14 73.0 °F 66.8 °F 30.08 in Calm     81% 0.00 in
22:19 72.8 °F 66.6 °F 30.08 in Calm     81% 0.00 in
22:24 72.6 °F 66.4 °F 30.08 in Calm     81% 0.00 in
22:29 72.4 °F 66.6 °F 30.08 in Calm     82% 0.00 in
22:34 72.3 °F 66.8 °F 30.08 in Calm     83% 0.00 in
22:39 72.2 °F 66.7 °F 30.08 in Calm     83% 0.00 in
22:44 72.1 °F 66.6 °F 30.08 in Calm     83% 0.00 in
22:49 72.0 °F 66.6 °F 30.08 in Calm     83% 0.00 in
22:54 71.9 °F 66.8 °F 30.08 in Calm     84% 0.00 in
22:59 71.9 °F 67.1 °F 30.08 in Calm     85% 0.00 in
23:04 72.1 °F 67.3 °F 30.08 in Calm     85% 0.00 in
23:09 72.1 °F 67.3 °F 30.08 in Calm     85% 0.00 in
23:24 72.1 °F 67.3 °F 30.08 in Calm     85% 0.00 in
23:29 72.0 °F 67.2 °F 30.08 in Calm     85% 0.00 in
23:34 71.8 °F 67.0 °F 30.07 in Calm     85% 0.00 in
23:39 71.7 °F 66.9 °F 30.07 in Calm     85% 0.00 in
23:44 71.4 °F 66.7 °F 30.07 in Calm     85% 0.00 in
23:49 71.3 °F 66.9 °F 30.08 in Calm     86% 0.00 in
23:54 71.2 °F 66.8 °F 30.07 in Calm     86% 0.00 in
23:59 71.0 °F 66.6 °F 30.07 in Calm     86% 0.00 in
Buffalo, New York, USA
Compliments of Weather Underground - 2.5 mb